CW1172 Weather Reports


time (UTC)temp
C
wind
direction
speed
KPH
gust
KPH
rain 1hr
cm
rain 24hr
cm
rain mn
cm
humidity
%
barometer
mb
20260508091605 17 360 0.0 0.0 0.00 0.00 0.00 30 1022.5
20260508090059 17 26 0.0 0.0 0.00 0.00 0.00 30 1022.6
20260508084557 17 28 0.0 0.0 0.00 0.00 0.00 29 1022.5
20260508081528 16 355 0.0 0.0 0.00 0.00 0.00 29 1022.6
20260508080025 16 71 0.0 0.0 0.00 0.00 0.00 31 1022.6
20260508074529 16 76 0.0 0.0 0.00 0.00 0.00 29 1022.5
20260508071551 14 51 0.0 0.0 0.00 0.00 0.00 31 1022.5
20260508070045 13 130 0.0 0.0 0.00 0.00 0.00 40 1022.5
20260508064600 12 129 0.0 0.0 0.00 0.00 0.00 49 1022.4
20260508061542 11 128 0.0 0.0 0.00 0.00 0.00 55 1022.1
20260508060034 7 128 0.0 0.0 0.00 0.00 0.00 59 1022.1
20260508054529 5 129 0.0 0.0 0.00 0.00 0.00 65 1022.0
20260508051525 2 129 0.0 0.0 0.00 0.00 0.00 79 1021.8
20260508050024 1 129 0.0 0.0 0.00 0.00 0.00 80 1021.7
20260508044523 1 128 0.0 0.0 0.00 0.00 0.00 81 1021.6
20260508041519 0 128 0.0 0.0 0.00 0.00 0.00 83 1021.5
20260508040019 0 129 0.0 0.0 0.00 0.00 0.00 83 1021.5
20260508034518 0 128 0.0 0.0 0.00 0.00 0.00 83 1021.4
20260508031511 0 128 0.0 0.0 0.00 0.00 0.00 82 1021.2
20260508030012 0 128 0.0 0.0 0.00 0.00 0.00 82 1021.1
20260508024516 0 128 0.0 0.0 0.00 0.00 0.00 82 1021.1
20260508021511 0 128 0.0 0.0 0.00 0.00 0.00 81 1021.1
20260508020013 0 130 0.0 0.0 0.00 0.00 0.00 80 1021.0
20260508014507 0 129 0.0 0.0 0.00 0.00 0.00 80 1021.0
20260508011505 0 129 0.0 0.0 0.00 0.00 0.00 78 1020.8
20260508010005 0 129 0.0 0.0 0.00 0.00 0.00 78 1020.7
20260508004503 0 128 0.0 0.0 0.00 0.00 0.00 77 1020.7
20260508001500 0 129 0.0 0.0 0.00 0.00 0.00 76 1020.4
20260508000058 1 128 0.0 0.0 0.00 0.00 0.00 76 1020.4
20260507234558 1 130 0.0 0.0 0.00 0.00 0.00 75 1020.1
20260507233154 1 128 0.0 0.0 0.00 0.00 0.00 74 1019.9
20260507231606 1 129 0.0 0.0 0.00 0.00 0.00 74 1019.9
20260507230053 1 129 0.0 0.0 0.00 0.00 0.00 73 1019.7
20260507224558 2 130 0.0 0.0 0.00 0.00 0.00 72 1019.8
20260507223150 2 128 0.0 0.0 0.00 0.00 0.00 71 1019.6
20260507221553 2 129 0.0 0.0 0.00 0.00 0.00 71 1019.6
20260507220051 2 128 0.0 0.0 0.00 0.00 0.00 69 1019.6
20260507214601 3 128 0.0 0.0 0.00 0.00 0.00 69 1019.6
20260507213149 3 129 0.0 0.0 0.00 0.00 0.00 67 1019.5
20260507211545 3 128 0.0 0.0 0.00 0.00 0.00 66 1019.4
20260507210051 3 360 0.0 0.0 0.00 0.00 0.00 64 1019.3
20260507204555 4 240 0.0 0.0 0.00 0.00 0.00 63 1019.1
20260507203142 5 241 0.0 0.0 0.00 0.00 0.00 61 1019.0
20260507201541 5 242 0.0 0.0 0.00 0.00 0.00 59 1019.0
20260507200039 6 242 0.0 0.0 0.00 0.00 0.00 56 1019.0
20260507194537 7 360 0.0 0.0 0.00 0.00 0.00 53 1018.8
20260507193135 8 240 0.0 0.0 0.00 0.00 0.00 49 1018.5
20260507191547 9 241 0.0 0.0 0.00 0.00 0.00 46 1018.4
20260507190046 10 240 0.0 0.0 0.00 0.00 0.00 41 1018.1
20260507184544 10 241 0.0 0.0 0.00 0.00 0.00 39 1017.8
20260507183143 11 267 0.0 0.0 0.00 0.00 0.00 39 1017.6
20260507181530 11 290 0.0 0.0 0.00 0.00 0.00 38 1017.7
20260507180033 12 300 0.0 0.0 0.00 0.00 0.00 34 1017.5
20260507174534 12 302 0.0 0.0 0.00 0.00 0.00 36 1017.4
20260507173129 13 288 0.0 0.0 0.00 0.00 0.00 33 1017.4
20260507171526 14 360 0.0 0.0 0.00 0.00 0.00 33 1017.3
20260507170025 15 231 0.0 0.0 0.00 0.00 0.00 33 1017.2
20260507164525 15 286 0.0 0.0 0.00 0.00 0.00 30 1017.1
20260507163125 15 232 0.0 0.0 0.00 0.00 0.00 29 1016.9
20260507161524 16 304 0.0 0.0 0.00 0.00 0.00 28 1017.0
20260507160023 16 279 0.0 0.0 0.00 0.00 0.00 30 1016.9
20260507154523 16 289 0.0 0.0 0.00 0.00 0.00 28 1017.0
20260507153121 16 300 0.0 0.0 0.00 0.00 0.00 31 1016.8
20260507151526 15 360 0.0 0.0 0.00 0.00 0.00 30 1016.6
20260507150027 15 223 0.0 0.0 0.00 0.00 0.00 30 1016.6
20260507144524 15 302 0.0 0.0 0.00 0.00 0.00 29 1016.6
20260507143127 15 360 0.0 0.0 0.00 0.00 0.00 29 1016.5
20260507141519 14 296 0.0 0.0 0.00 0.00 0.00 29 1016.5
20260507140020 15 360 0.0 0.0 0.00 0.00 0.00 30 1016.6
20260507134520 15 305 0.0 0.0 0.00 0.00 0.00 32 1016.4
20260507133116 15 329 0.0 0.0 0.00 0.00 0.00 29 1016.3
20260507131519 15 271 0.0 0.0 0.00 0.00 0.00 28 1016.4
20260507130015 16 360 0.0 0.0 0.00 0.00 0.00 29 1016.3
20260507124521 16 265 0.0 0.0 0.00 0.00 0.00 29 1016.2
20260507123113 16 290 0.0 0.0 0.00 0.00 0.00 30 1016.1
20260507121514 15 309 0.0 0.0 0.00 0.00 0.00 29 1016.0
20260507120013 16 360 0.0 0.0 0.00 0.00 0.00 31 1016.1
20260507114514 16 305 0.0 0.0 0.00 0.00 0.00 32 1016.1
20260507113111 16 219 0.0 0.0 0.00 0.00 0.00 31 1015.9
20260507111511 15 360 0.0 0.0 0.00 0.00 0.00 33 1016.0
20260507110008 15 350 0.0 0.0 0.00 0.00 0.00 33 1016.0
20260507104506 15 360 0.0 0.0 0.00 0.00 0.00 34 1016.0
20260507103105 15 267 0.0 0.0 0.00 0.00 0.00 34 1015.9
20260507101504 15 90 0.0 0.0 0.00 0.00 0.00 35 1015.7
20260507100005 15 335 0.0 0.0 0.00 0.00 0.00 31 1015.7
20260507094501 15 360 0.0 0.0 0.00 0.00 0.00 32 1015.5